Location: Cudham
(51.3000°N, 0.0667°E)
Time: 23:29:28
(UTC+00:00)

Cosmos 405 Rocket - Pass Details

Date: 19 May 2025
Orbit: 413 x 447 km, 81.2° (Epoch: 18 June)

Event Time Altitude Azimuth Distance (km) Brightness Sun altitude
Rises 21:36:27 0° 359° (N) 2,465 7.2 -12.4°
Reaches altitude 10° 21:38:58 10° 17° (NNE) 1,581 5.7 -12.6°
Maximum altitude 21:41:32 19° 66° (ENE) 1,113 4.3 -12.9°
Enters shadow 21:43:14 14° 102° (ESE) 1,327 4.4 -13.0°
